Nashua, NH

8:52 AM EST on December 09, 2016 (GMT -0500)
Boire

Weather History for KASH - April, 2012

Change the Weather History Date:

Tuesday, April 24, 2012

  Actual Average Record
Temperature  
Mean Temperature 50 °F -  
Max Temperature 55 °F 58 °F 89 °F (2001)
Min Temperature 45 °F 37 °F 25 °F (1959)
Degree Days  
Heating Degree Days 15    
Moisture  
Dew Point 34 °F    
Average Humidity 56    
Maximum Humidity 77    
Minimum Humidity 34    
Precipitation  
Precipitation 0.00 in - - ()
Sea Level Pressure  
Sea Level Pressure 29.52 in    
Wind  
Wind Speed 6 mph (SSE)    
Max Wind Speed 10 mph    
Max Gust Speed 25 mph    
Visibility 10 miles    
Events      
Averages and records for this station are not official NWS values.
T = Trace of Precipitation, MM = Missing Value Source: NWS Daily Summary

Daily Weather History Graph

Daily Weather History Graph

Search for Another Location

Airport or City:

Trip Planner

Search our weather history database for the weather conditions in past years. The results will help you decide how hot, cold, wet, or windy it might be!

Date:

Astronomy

Apr. 24, 2012 Rise Set
Actual Time 5:49 AM EDT 7:39 PM EDT
Civil Twilight 5:19 AM EDT 8:09 PM EDT
Nautical Twilight 4:42 AM EDT 8:46 PM EDT
Astronomical Twilight 4:03 AM EDT 9:26 PM EDT
Moon 7:39 AM EDT (4/24) 11:00 PM EDT (4/24)
Length of Visible Light 14h 49m
Length of Day
13h 49m
Waxing Crescent, 10% of the Moon is Illuminated
Apr 24
Waxing Crescent
Apr 29
First Quarter
May 5
Full
May 12
Last Quarter
May 20
New

Hourly Weather History & Observations

Time (EDT) Temp. Windchill Dew Point Humidity Pressure Visibility Wind Dir Wind Speed Gust Speed Precip Events Conditions
12:51 AM 50.0 °F - 41.9 °F 74% 29.43 in 10.0 mi SE 6.9 mph - N/A   Mostly Cloudy
1:51 AM 48.9 °F - 41.0 °F 74% 29.39 in 10.0 mi SSE 3.5 mph - N/A   Overcast
2:24 AM 48.2 °F - 41.0 °F 76% 29.38 in 10.0 mi SSE 5.8 mph - N/A   Scattered Clouds
2:51 AM 46.9 °F - 39.9 °F 77% 29.40 in 10.0 mi SE 5.8 mph - N/A   Clear
3:51 AM 46.9 °F - 39.9 °F 77% 29.40 in 10.0 mi SE 6.9 mph - N/A   Overcast
4:51 AM 46.9 °F - 39.9 °F 77% 29.39 in 10.0 mi SE 6.9 mph - N/A   Overcast
5:51 AM 46.9 °F - 39.9 °F 77% 29.39 in 10.0 mi SSE 10.4 mph 25.3 mph N/A   Overcast
6:51 AM 45.9 °F 41.7 °F 32.9 °F 61% 29.42 in 10.0 mi South 8.1 mph 18.4 mph N/A   Clear
7:51 AM 45.9 °F 41.7 °F 32.0 °F 58% 29.45 in 10.0 mi SSW 8.1 mph - N/A   Mostly Cloudy
8:51 AM 47.8 °F - 31.1 °F 52% 29.46 in 10.0 mi South 8.1 mph - N/A   Partly Cloudy
9:51 AM 48.9 °F - 31.1 °F 50% 29.49 in 10.0 mi Variable 5.8 mph - N/A   Mostly Cloudy
10:51 AM 47.8 °F - 32.0 °F 54% 29.50 in 10.0 mi Variable 6.9 mph - N/A   Overcast
11:51 AM 50.0 °F - 32.0 °F 50% 29.51 in 10.0 mi Variable 6.9 mph - N/A   Mostly Cloudy
12:51 PM 50.0 °F - 31.1 °F 48% 29.52 in 10.0 mi Variable 5.8 mph - N/A   Overcast
1:51 PM 54.0 °F - 30.0 °F 40% 29.53 in 9.0 mi South 9.2 mph 24.2 mph N/A   Scattered Clouds
2:51 PM 54.0 °F - 28.0 °F 37% 29.54 in 10.0 mi SSW 6.9 mph - N/A   Mostly Cloudy
3:51 PM 54.0 °F - 27.1 °F 36% 29.56 in 10.0 mi SSW 6.9 mph 13.8 mph N/A   Mostly Cloudy
4:51 PM 55.9 °F - 28.0 °F 34% 29.57 in 10.0 mi South 9.2 mph - N/A   Mostly Cloudy
5:51 PM 54.0 °F - 29.1 °F 39% 29.60 in 10.0 mi Variable 4.6 mph - N/A   Mostly Cloudy
6:51 PM 54.0 °F - 29.1 °F 39% 29.62 in 10.0 mi Variable 6.9 mph - N/A   Partly Cloudy
7:51 PM 50.9 °F - 31.1 °F 47% 29.64 in 10.0 mi Calm Calm - N/A   Partly Cloudy
8:51 PM 46.9 °F - 34.0 °F 61% 29.66 in 10.0 mi SE 3.5 mph - N/A   Clear
9:51 PM 48.9 °F - 32.0 °F 52% 29.68 in 10.0 mi SSE 5.8 mph - N/A   Scattered Clouds
10:51 PM 48.9 °F - 34.9 °F 58% 29.69 in 10.0 mi Variable 3.5 mph - N/A   Scattered Clouds
11:51 PM 47.8 °F - 36.0 °F 63% 29.70 in 10.0 mi SSE 6.9 mph - N/A   Partly Cloudy